#timestamp,LO_Frequency,Hit,StdDev 
1652274015.5,286046996.6,P
1652274035.3,286046998.9,N
1652274055.1,286046997.6,N
1652274075.9,286047000.1,N
1652274095.7,286047004.5,Y
1652274115.5,286047003.4,P
1652274135.4,286047003.5,N
1652274155.2,286047002.7,N
1652274175.1,286046998.9,N
1652274176.0,286046998.9,N
1652274195.8,286046999.8,N
1652274215.6,286046995.0,N
1652274235.5,286046999.2,N
1652274255.3,286047000.4,N
1652274275.1,286047002.4,N
1652274295.9,286047002.1,N
1652274315.7,286046999.3,N
1652274335.6,286046998.5,N
1652274355.4,286046998.4,N
1652274375.2,286046997.4,N
1652274395.1,286046998.3,N
1652274396.0,286046998.3,N
1652274415.8,286046997.0,N
1652274435.6,286046997.1,N
1652274455.5,286046995.4,N
1652274475.3,286046992.4,Y
1652274495.2,286046994.4,P
1652274515.0,286046992.4,P
1652274515.9,286046992.4,N
1652274535.7,286046990.1,Y
1652274555.6,286046996.2,P
1652274575.4,286046994.0,P
1652274595.3,286046997.8,N
1652274615.1,286046995.1,Y
1652274635.8,286047004.3,P
1652274655.7,286047004.3,N
1652274675.5,286047001.1,N
1652274695.4,286046997.2,N
1652274715.2,286046995.3,N
1652274735.0,286046996.2,N
1652274735.9,286046996.2,N
1652274755.8,286046997.7,N
1652274775.6,286046997.5,N
1652274795.5,286046998.9,N
1652274815.3,286046999.6,N
1652274835.1,286047000.7,N
1652274855.9,286047003.6,N
1652274875.7,286047001.5,N
1652274895.5,286046999.9,N
1652274915.4,286046999.2,N
1652274935.2,286046999.7,N
1652274955.0,286046999.1,N
1652274956.0,286046999.1,N
1652274975.8,286046997.8,N
1652274995.6,286046995.1,N
1652275015.5,286046997.6,N
1652275035.3,286046996.1,N
1652275055.1,286046996.4,N
1652275075.9,286046994.1,N
1652275095.7,286046992.2,N
1652275115.5,286046992.9,N
1652275135.4,286046990.4,Y
1652275155.2,286046994.7,P
1652275175.1,286046989.0,P
1652275176.0,286046989.0,N
1652275195.8,286046991.2,N
1652275215.6,286046990.9,N
1652275235.5,286046991.4,N
1652275255.3,286046990.5,Y
1652275275.2,286046997.0,P
1652275295.9,286046998.0,N
1652275315.7,286046995.8,N
1652275335.6,286046997.3,N
1652275355.4,286046996.8,N
1652275375.2,286047001.6,N
1652275395.1,286047003.0,N
1652275396.0,286047003.0,N
1652275415.8,286047005.4,N
1652275435.7,286047007.3,N
1652275455.5,286047005.8,N
1652275475.3,286047004.0,N
1652275495.2,286047000.3,N
1652275515.9,286047004.4,N
1652275535.7,286047002.2,N
1652275555.6,286046999.8,N
1652275575.4,286047001.2,N
1652275595.2,286047001.1,N
1652275615.1,286047000.0,N
1652275616.0,286047000.0,N
1652275635.8,286046998.0,N
1652275655.7,286046995.8,N
1652275675.5,286046994.0,N
1652275695.3,286046992.5,N
1652275715.2,286046992.1,N
1652275735.0,286046992.0,N
1652275735.9,286046992.0,N
1652275755.7,286046992.8,N
1652275775.6,286046992.8,N
1652275795.4,286046996.3,N
1652275815.3,286046996.6,N
1652275835.1,286046997.9,N
1652275836.0,286046997.9,N
1652275855.8,286046997.3,N
1652275875.7,286046997.5,N
1652275895.5,286046994.6,N
1652275915.3,286046990.4,N
1652275935.2,286046991.1,N
1652275955.0,286046993.0,N
1652275955.9,286046993.0,N
1652275975.8,286046992.6,N
1652275995.6,286046992.6,N
1652276015.4,286046995.5,N
1652276035.3,286046994.7,N
1652276055.1,286046989.0,Y
1652276075.8,286046994.7,P
1652276095.7,286046992.1,P
1652276115.5,286046993.2,P
1652276135.4,286046990.2,Y
1652276155.2,286046998.3,P
1652276175.0,286046997.4,N
1652276175.9,286046997.4,N
1652276195.8,286046996.1,N
1652276215.6,286046993.4,Y
1652276235.4,286046999.4,P
1652276255.3,286046998.2,N
1652276275.1,286046997.0,N
1652276295.9,286046996.7,Y
1652276315.7,286046999.3,P
1652276335.5,286046997.1,P
1652276355.4,286046999.2,N
1652276375.2,286046997.2,Y
1652276395.0,286046999.4,P
1652276396.0,286046999.4,N
1652276415.8,286047004.3,P
1652276435.6,286047001.9,N
1652276455.5,286047003.1,N
1652276475.3,286047005.5,N
1652276495.1,286047005.2,N
1652276515.9,286047000.5,N
1652276535.7,286047000.8,N
1652276555.5,286046996.5,N
1652276575.4,286046996.3,N
1652276595.2,286046993.6,N
1652276615.1,286046992.4,N
1652276616.0,286046992.4,N
1652276635.8,286046993.5,N
1652276655.6,286046992.0,N
1652276675.5,286046990.5,N
1652276695.3,286046991.7,N
1652276715.1,286046994.4,N
1652276735.9,286046996.3,N
1652276755.7,286046995.8,N
1652276775.6,286046995.6,N
1652276795.4,286046994.3,N
1652276815.2,286046993.6,N
1652276835.1,286046993.9,N
1652276836.0,286046993.9,N
1652276855.8,286046990.8,N
1652276875.6,286046992.2,N
1652276895.5,286046993.8,N
1652276915.3,286046991.7,N
1652276935.2,286046992.5,N
1652276955.9,286046992.7,N
1652276975.7,286046992.6,N
1652276995.6,286046988.8,N
1652277015.4,286046989.0,N
1652277035.2,286046992.4,N
1652277055.1,286046987.5,Y
1652277056.0,286046987.5,P
1652277075.8,286046992.4,N
1652277095.7,286046991.9,N
1652277115.5,286046993.0,N
1652277135.3,286046994.4,N
1652277155.2,286046993.8,N
1652277175.0,286046993.5,Y
1652277175.9,286046993.5,P
1652277195.7,286047002.0,P
1652277215.6,286047002.3,N
1652277235.4,286046999.0,N
1652277255.3,286047000.6,N
1652277275.1,286047001.8,N
1652277276.0,286047001.8,N
1652277295.8,286047006.7,N
1652277315.7,286047005.7,N
1652277335.5,286047003.1,N
1652277355.3,286047002.0,N
1652277375.2,286047000.6,N
1652277395.0,286047000.6,N
1652277395.9,286047000.6,N
1652277415.8,286046998.8,N
1652277435.6,286046997.5,N
1652277455.4,286046997.1,N
1652277475.3,286047002.7,N
1652277495.1,286046998.6,N
1652277515.8,286047001.1,N
1652277535.7,286047001.0,N
1652277555.5,286047003.9,N
1652277575.3,286047003.3,N
1652277595.2,286047007.6,N
